Flag for United Kingdom Weather past 2 weeks in Dundee, Scotland, United Kingdom

Now
55 °F

Passing clouds.


Feels Like: 52 °F
Forecast: 54 / 63 °F
Wind: 12 mph from South

Location: Leuchars

Current Time: Aug 4, 2015 at 2:31:27 AM

Latest Report: Aug 4, 2015 at 1:50 AM


Visibility: N/A

Pressure: 29.59 "Hg

Humidity: 77%

Dew point: 48 °F

Location of DundeeLocation

Historic Weather in Dundee — Graph

°F

Dundee temperature yesterday

Maximum temperature yesterday: 70 °F (at 11:50 AM)
Minimum temperature yesterday: 55 °F (at 4:50 AM)
Average temperature yesterday: 61 °F

Past Weeks' High & Low Weather Summary

 TemperatureHumidityPressure
High70 °F (Aug 3, 11:50 AM)100% (Jul 20, 3:50 AM)30.04 "Hg (Jul 20, 3:50 AM)
Low45 °F (Jul 22, 2:50 AM)48% (Jul 30, 1:50 PM)29.47 "Hg (Jul 20, 7:50 PM)
Average55 °F80%29.78 "Hg
* Reported Jul 20 12:50 AM — Aug 4 12:50 AM, Dundee, Weather by CustomWeather, © 2015

Note: Actual official high and low records may vary slightly from our data, if they occured in-between our weather recording intervals... More about our weather records

Advertising

Dundee weather history for previous 24 hours

 ConditionsComfort  
Time TempWeatherWind HumidityBarometerVisibility
12:50 AM
Tue, Aug 4
54 °FClear.6 mph82%29.59 "Hg10 mi
11:50 PM
Mon, Aug 3
57 °FClear.9 mph72%29.62 "Hg10 mi
10:50 PM55 °FClear.8 mph77%29.62 "Hg10 mi
9:50 PM57 °FSunny.14 mph72%29.62 "Hg10 mi
8:50 PM59 °FSunny.16 mph68%29.62 "Hg10 mi
7:50 PM63 °FSunny.12 mph64%29.62 "Hg10 mi
6:50 PM64 °FSunny.15 mph60%29.62 "Hg10 mi
5:50 PM64 °FSunny.16 mph60%29.62 "Hg10 mi
4:50 PM68 °FSunny.18 mph53%29.62 "Hg10 mi
3:50 PM66 °FPartly sunny.17 mph60%29.62 "HgN/A
2:50 PM66 °FPartly sunny.15 mph68%29.62 "HgN/A
1:50 PM70 °FSunny.23 mph57%29.62 "Hg10 mi
12:50 PM70 °FScattered clouds.22 mph60%29.62 "HgN/A
11:50 AM70 °FScattered clouds.17 mph64%29.62 "HgN/A
10:50 AM68 °FScattered clouds.12 mph69%29.62 "HgN/A
9:50 AM63 °FSunny.6 mph83%29.62 "Hg10 mi
8:50 AM61 °FSunny.7 mph88%29.62 "Hg10 mi
7:50 AM57 °FPartly sunny.7 mph94%29.62 "HgN/A
6:50 AM57 °FFog.7 mph94%29.65 "Hg4 mi
5:50 AM55 °FLight rain. Overcast.13 mph100%29.65 "Hg3 mi
4:50 AM55 °FRain. Mostly cloudy.14 mph100%29.68 "Hg3 mi
3:50 AM57 °FLight rain. Passing clouds.17 mph94%29.71 "Hg4 mi
2:50 AM57 °FLight rain. Low clouds.17 mph94%29.74 "HgN/A
Weather by CustomWeather, © 2015

See weather overviewHow to use our weather pages